Welcome to the New NWS' Forecast!
Most changes are behind the scenes, but click here for differences you might notice.

Terminal Aerodrome Forecast (TAF)

Issued by National Weather Service (NWS)

                            
000
FTUS42 KKEY 130904 AAA
TAFEYW
TAF AMD
KEYW 130904Z 1309/1406 12012KT P6SM VCSH SCT020 SCT050
     FM131500 13009KT P6SM SCT025=